DW4129 Weather Reports


time (UTC)temp
F
wind
direction
speed
knots
gust
knots
rain 1hr
in
rain 24hr
in
rain mn
in
humidity
%
barometer
mb
20260508044605 50 0 0.0 0.0 0.00 0.69 0.00 95 1013.8
20260508044056 49 0 0.0 0.0 0.00 0.69 0.00 95 1013.6
20260508043555 50 0 0.0 0.0 0.00 0.69 0.00 95 1013.5
20260508043057 50 0 0.0 0.0 0.00 0.69 0.00 95 1013.3
20260508042555 50 0 0.0 0.0 0.00 0.69 0.00 95 1013.3
20260508042057 50 0 0.0 0.0 0.00 0.69 0.00 95 1013.3
20260508041600 50 0 0.0 0.0 0.00 0.69 0.00 95 1013.3
20260508041058 50 0 0.0 0.0 0.00 0.69 0.00 95 1013.2
20260508040556 50 0 0.0 0.0 0.00 0.69 0.00 95 1013.1
20260508040059 51 0 0.0 0.0 0.00 0.69 0.00 95 1013.2
20260508035556 51 0 0.0 1.7 0.00 0.73 0.69 94 1013.2
20260508035056 51 0 0.0 1.7 0.00 0.73 0.69 94 1013.2
20260508034602 51 0 0.0 1.7 0.00 0.73 0.69 94 1013.2
20260508034056 51 259 0.0 1.7 0.00 0.73 0.69 95 1013.1
20260508033556 51 0 0.0 0.0 0.00 0.73 0.69 95 1013.0
20260508033054 51 0 0.0 0.0 0.00 0.73 0.69 94 1013.0
20260508032558 51 0 0.0 0.0 0.00 0.73 0.69 94 1013.0
20260508032056 52 0 0.0 0.0 0.00 0.73 0.69 94 1013.0
20260508031602 52 0 0.0 1.7 0.00 0.73 0.69 94 1013.1
20260508031059 52 0 0.0 1.7 0.00 0.73 0.69 94 1013.1
20260508030638 52 219 0.9 1.7 0.00 0.73 0.69 94 1013.1
20260508030112 53 246 0.0 1.7 0.00 0.73 0.69 94 1013.1
20260508025557 53 246 0.0 1.7 0.00 0.75 0.69 94 1013.0
20260508025054 53 221 0.9 0.9 0.00 0.75 0.69 94 1013.0
20260508024606 53 189 0.0 1.7 0.00 0.75 0.69 94 1013.0
20260508024057 53 189 0.0 1.7 0.00 0.75 0.69 94 1012.7
20260508023558 53 174 0.0 1.7 0.00 0.75 0.69 94 1012.5
20260508023057 53 174 0.0 0.0 0.00 0.75 0.69 94 1012.6
20260508022556 53 0 0.0 1.7 0.00 0.75 0.69 94 1012.7
20260508022056 53 0 0.0 1.7 0.00 0.75 0.69 94 1012.7
20260508021615 53 174 0.0 1.7 0.00 0.75 0.69 94 1012.5
20260508021059 53 0 0.0 1.7 0.00 0.75 0.69 94 1012.5
20260508020556 53 0 0.0 1.7 0.00 0.75 0.69 94 1012.5
20260508020057 53 0 0.0 1.7 0.00 0.75 0.69 94 1012.4
20260508015559 53 107 0.0 1.7 0.00 0.75 0.69 94 1012.3
20260508015057 53 0 0.0 1.7 0.00 0.75 0.69 94 1012.2
20260508014559 53 0 0.0 1.7 0.00 0.75 0.69 94 1012.0
20260508014057 53 0 0.0 1.7 0.00 0.75 0.69 94 1011.9
20260508013556 53 107 0.9 1.7 0.00 0.75 0.69 94 1011.7
20260508013106 53 107 0.0 1.7 0.00 0.75 0.69 94 1011.6
20260508012556 53 107 0.9 0.9 0.00 0.75 0.69 94 1011.6
20260508012057 54 107 0.9 1.7 0.00 0.75 0.69 94 1011.5
20260508011600 54 74 0.9 1.7 0.00 0.75 0.69 93 1011.5
20260508011058 54 69 0.9 1.7 0.00 0.75 0.69 93 1011.5
20260508010556 54 45 0.0 1.7 0.00 0.75 0.69 94 1011.5
20260508010056 54 45 0.0 1.7 0.00 0.75 0.69 94 1011.5
20260508005559 54 0 0.0 1.7 0.00 0.75 0.69 93 1011.6
20260508005100 54 0 0.0 1.7 0.00 0.75 0.69 93 1011.6
20260508004559 54 17 0.0 0.9 0.00 0.75 0.69 93 1011.8
20260508004056 54 46 0.0 1.7 0.00 0.75 0.69 93 1011.6
20260508003555 54 0 0.0 1.7 0.00 0.75 0.69 93 1011.7
20260508003105 54 0 0.9 1.7 0.00 0.75 0.69 93 1011.6
20260508002556 54 43 0.0 0.9 0.00 0.75 0.69 93 1011.5
20260508002056 54 0 0.0 1.7 0.00 0.75 0.69 93 1011.4
20260508001555 54 98 0.0 2.6 0.00 0.75 0.69 92 1011.2
20260508001056 54 84 0.9 2.6 0.00 0.75 0.69 93 1011.2
20260508000556 54 121 0.9 1.7 0.00 0.75 0.69 93 1011.2
20260508000055 54 86 0.0 1.7 0.00 0.75 0.69 93 1011.0
20260507235557 54 82 0.9 1.7 0.00 0.75 0.69 92 1010.7
20260507235130 54 71 0.9 1.7 0.00 0.75 0.69 92 1010.8
20260507234555 54 101 0.0 1.7 0.00 0.75 0.69 93 1010.8
20260507234056 54 110 0.0 4.3 0.00 0.75 0.69 92 1010.7
20260507233552 54 138 0.0 4.3 0.00 0.75 0.69 92 1010.5
20260507233054 54 96 2.6 4.3 0.00 0.75 0.69 92 1010.5
20260507232552 55 94 1.7 4.3 0.00 0.75 0.69 92 1010.3
20260507232054 55 71 1.7 3.5 0.00 0.75 0.69 92 1010.4
20260507231559 55 101 2.6 3.5 0.00 0.75 0.69 92 1010.4
20260507231055 55 51 0.9 4.3 0.00 0.75 0.69 92 1010.4
20260507230557 55 76 0.9 4.3 0.00 0.75 0.69 92 1010.3
20260507230056 55 40 2.6 4.3 0.00 0.75 0.69 91 1010.3
20260507225557 55 79 2.6 4.3 0.00 0.75 0.69 91 1010.2
20260507225100 55 74 1.7 5.2 0.00 0.75 0.69 91 1010.3
20260507224604 55 111 2.6 5.2 0.00 0.75 0.69 91 1010.4
20260507224057 55 57 1.7 5.2 0.00 0.75 0.69 92 1010.3
20260507223559 55 38 1.7 5.2 0.00 0.75 0.69 92 1010.2
20260507223059 55 81 0.9 4.3 0.00 0.75 0.69 92 1010.1
20260507222559 55 82 2.6 5.2 0.00 0.75 0.69 92 1010.1
20260507222057 55 75 2.6 5.2 0.00 0.75 0.69 92 1010.1
20260507221555 55 76 1.7 6.1 0.00 0.75 0.69 92 1010.1
20260507221055 55 15 2.6 6.1 0.00 0.75 0.69 91 1010.0
20260507220555 55 66 2.6 7.0 0.00 0.75 0.69 92 1010.0
20260507220058 55 65 2.6 7.0 0.01 0.75 0.69 91 1010.0
20260507215559 56 113 1.7 6.1 0.01 0.75 0.69 92 1010.1
20260507215056 56 47 2.6 6.1 0.01 0.75 0.69 92 1010.1
20260507214558 55 75 0.9 6.1 0.01 0.75 0.69 92 1010.2
20260507214057 55 42 3.5 6.1 0.01 0.75 0.69 92 1010.3
20260507213556 55 37 1.7 4.3 0.01 0.75 0.69 92 1010.3
20260507213058 55 52 1.7 4.3 0.01 0.75 0.69 92 1010.3
20260507212557 55 51 0.9 6.1 0.01 0.75 0.69 92 1010.3
20260507212056 55 81 1.7 7.0 0.01 0.75 0.69 92 1010.4
20260507211555 55 34 3.5 7.0 0.01 0.75 0.69 92 1010.3
20260507211055 55 74 2.6 7.0 0.01 0.75 0.69 92 1010.2
20260507210556 55 44 2.6 7.0 0.01 0.75 0.69 92 1010.1
20260507210119 55 78 1.7 7.0 0.00 0.74 0.68 92 1010.4
20260507205557 55 92 2.6 7.0 0.00 0.74 0.68 92 1010.3
20260507205056 55 54 0.9 7.0 0.00 0.74 0.68 92 1010.2
20260507204602 55 5 2.6 6.1 0.00 0.74 0.68 92 1010.2
20260507204102 55 51 2.6 6.1 0.00 0.74 0.68 92 1009.8
20260507203556 55 40 2.6 7.0 0.00 0.74 0.68 91 1010.1
20260507203104 55 51 3.5 11.3 0.00 0.74 0.68 91 1009.9
20260507202556 55 84 3.5 11.3 0.00 0.74 0.68 91 1009.8
20260507202058 56 99 4.3 11.3 0.00 0.74 0.68 91 1009.8
20260507201603 56 35 2.6 9.6 0.00 0.74 0.68 91 1009.9
20260507201059 56 46 5.2 8.7 0.00 0.74 0.68 91 1009.7
20260507200556 56 351 1.7 7.8 0.00 0.74 0.68 92 1009.9
20260507200105 56 62 2.6 8.7 0.00 0.74 0.68 92 1009.8
20260507195558 55 30 3.5 8.7 0.00 0.74 0.68 92 1009.9
20260507195056 55 46 2.6 8.7 0.00 0.74 0.68 92 1009.9
20260507194636 55 111 3.5 8.7 0.00 0.74 0.68 92 1009.8
20260507194100 55 56 1.7 8.7 0.00 0.74 0.68 92 1010.0
20260507193557 56 39 3.5 8.7 0.00 0.74 0.68 92 1009.9
20260507193118 56 25 2.6 9.6 0.00 0.74 0.68 92 1010.0
20260507192555 56 44 2.6 9.6 0.00 0.74 0.68 92 1009.9
20260507192100 55 55 4.3 9.6 0.00 0.74 0.68 92 1010.0
20260507191559 55 71 3.5 7.0 0.00 0.74 0.68 92 1010.1
20260507191100 55 25 1.7 10.4 0.01 0.74 0.68 92 1010.2
20260507190556 55 29 5.2 10.4 0.01 0.74 0.68 93 1010.0
20260507190056 55 63 3.5 8.7 0.02 0.74 0.68 92 1009.9
20260507185556 55 321 1.7 6.1 0.02 0.74 0.68 93 1010.1
20260507185056 55 103 1.7 6.1 0.02 0.74 0.68 92 1010.1
20260507184556 55 38 2.6 8.7 0.02 0.74 0.68 92 1010.2
20260507184100 55 52 1.7 8.7 0.02 0.74 0.68 93 1010.1
20260507183554 56 83 3.5 8.7 0.02 0.74 0.68 93 1009.9
20260507183102 55 35 3.5 8.7 0.02 0.74 0.68 92 1010.0
20260507182556 55 36 3.5 5.2 0.02 0.74 0.68 93 1010.0
20260507182053 56 352 2.6 8.7 0.02 0.74 0.68 93 1010.2
20260507181556 55 91 2.6 8.7 0.02 0.74 0.68 93 1010.0
20260507181056 55 43 6.1 8.7 0.01 0.73 0.67 93 1010.0
20260507180558 55 42 3.5 12.2 0.01 0.73 0.67 92 1010.0
20260507180056 55 71 3.5 12.2 0.00 0.72 0.66 92 1010.2
20260507175559 55 67 2.6 6.1 0.01 0.72 0.66 92 1010.3
20260507175056 55 44 3.5 9.6 0.01 0.72 0.66 92 1010.2
20260507174603 55 89 3.5 10.4 0.01 0.72 0.66 91 1010.1
20260507174057 55 89 3.5 10.4 0.01 0.72 0.66 92 1010.1
20260507173556 55 22 1.7 11.3 0.01 0.72 0.66 91 1010.2
20260507173132 55 45 4.3 12.2 0.01 0.72 0.66 91 1010.2
20260507172557 55 91 6.1 12.2 0.01 0.72 0.66 91 1010.4
20260507172055 55 79 4.3 10.4 0.01 0.72 0.66 91 1010.2
20260507171601 55 51 5.2 10.4 0.01 0.72 0.66 91 1009.8
20260507171056 56 360 4.3 9.6 0.01 0.72 0.66 92 1009.7
20260507170559 56 47 1.7 13.0 0.01 0.72 0.66 92 1009.6
20260507170055 56 16 6.1 13.0 0.01 0.72 0.66 92 1009.4
20260507165555 56 58 4.3 11.3 0.00 0.71 0.65 92 1009.3
20260507165056 56 84 5.2 15.6 0.01 0.71 0.65 92 1009.5
20260507164606 56 63 6.1 15.6 0.01 0.71 0.65 91 1009.6
20260507164057 56 60 5.2 15.6 0.01 0.71 0.65 91 1009.6
20260507163557 57 87 4.3 11.3 0.03 0.71 0.65 91 1010.1
20260507163056 58 71 5.2 13.0 0.05 0.71 0.65 90 1009.6
20260507162557 59 98 6.1 13.0 0.06 0.71 0.65 90 1009.4
20260507162058 61 88 7.0 13.0 0.06 0.71 0.65 89 1009.9
20260507161608 63 345 1.7 5.2 0.06 0.71 0.65 92 1009.9
20260507161057 63 49 0.9 4.3 0.07 0.71 0.65 93 1009.5
20260507160556 63 60 0.0 4.3 0.07 0.71 0.65 93 1009.7
20260507160114 63 72 3.5 4.3 0.08 0.71 0.65 92 1009.4
20260507155556 63 94 0.0 3.5 0.08 0.71 0.65 92 1009.7
20260507155055 63 65 0.0 6.1 0.08 0.70 0.64 92 1010.2
20260507154555 63 53 0.9 7.8 0.08 0.70 0.64 92 1010.1
20260507154056 64 84 4.3 7.8 0.09 0.70 0.64 92 1009.8
20260507153556 64 55 0.9 2.6 0.08 0.68 0.62 93 1010.1
20260507153056 65 0 0.0 1.7 0.06 0.66 0.60 94 1010.4
20260507152556 65 267 0.9 1.7 0.05 0.65 0.58 94 1010.0
20260507152057 65 360 0.9 1.7 0.06 0.65 0.58 93 1009.6
20260507151600 65 9 0.0 1.7 0.05 0.64 0.58 94 1009.3
20260507151101 65 5 0.0 1.7 0.05 0.64 0.58 94 1009.3
20260507150556 65 321 0.9 1.7 0.06 0.64 0.58 94 1009.6
20260507150054 65 0 0.0 1.7 0.05 0.63 0.57 94 1009.7
20260507145555 65 265 0.0 1.7 0.05 0.63 0.57 94 1009.8
20260507145055 65 286 0.0 1.7 0.05 0.62 0.56 94 1009.7
20260507144601 65 328 0.0 1.7 0.06 0.62 0.56 94 1009.6
20260507144056 65 287 0.0 1.7 0.05 0.61 0.55 94 1009.6
20260507143557 65 294 0.0 1.7 0.05 0.60 0.54 94 1009.3
20260507143104 65 292 0.0 1.7 0.06 0.60 0.54 94 1009.4
20260507142556 65 284 0.0 1.7 0.07 0.60 0.54 94 1009.4
20260507142057 65 0 0.0 1.7 0.07 0.58 0.52 95 1009.3
20260507141619 65 0 0.0 1.7 0.09 0.58 0.52 95 1009.3
20260507141056 65 63 0.9 1.7 0.10 0.58 0.52 94 1009.1
20260507140557 65 71 0.9 1.7 0.11 0.58 0.52 95 1009.2
20260507140109 65 82 0.0 1.7 0.13 0.58 0.52 95 1009.2
20260507135600 65 0 0.9 1.7 0.14 0.58 0.52 95 1009.4
20260507135056 65 352 0.0 1.7 0.14 0.57 0.51 95 1009.6
20260507134603 65 64 0.0 1.7 0.14 0.56 0.50 95 1009.8
20260507134056 65 284 0.0 1.7 0.17 0.56 0.50 95 1010.0
20260507133556 65 0 0.0 1.7 0.18 0.55 0.49 95 1010.1
20260507133056 64 0 0.0 1.7 0.17 0.54 0.48 95 1010.2
20260507132556 65 108 0.0 1.7 0.18 0.52 0.47 95 1010.5
20260507132056 64 0 0.0 1.7 0.16 0.51 0.45 95 1010.6
20260507131557 65 244 0.0 2.6 0.15 0.50 0.44 95 1010.7
20260507131057 64 0 0.9 2.6 0.14 0.49 0.43 95 1010.7
20260507130556 64 241 0.0 2.6 0.12 0.47 0.41 95 1010.6
20260507130056 64 11 0.0 1.7 0.10 0.45 0.39 95 1010.5
20260507125556 64 297 0.0 2.6 0.09 0.44 0.38 95 1010.3
20260507125056 64 265 0.0 2.6 0.08 0.43 0.37 95 1010.2
20260507124555 64 0 0.0 1.7 0.07 0.42 0.36 95 1010.1
20260507124057 64 0 0.0 1.7 0.05 0.39 0.33 95 1010.0
20260507123556 64 39 0.0 1.7 0.03 0.37 0.31 95 1010.1
20260507123055 64 0 0.0 1.7 0.03 0.37 0.31 95 1010.1
20260507122555 64 0 0.0 1.7 0.01 0.35 0.29 95 1010.1
20260507122055 64 0 0.0 1.7 0.01 0.35 0.29 95 1010.1
20260507121554 64 0 0.0 1.7 0.01 0.35 0.29 95 1010.1
20260507121057 64 0 0.0 1.7 0.01 0.35 0.29 95 1010.1
20260507120556 64 0 0.0 1.7 0.01 0.35 0.29 95 1010.0
20260507120059 64 0 0.0 1.7 0.02 0.35 0.29 95 1010.1
20260507115556 64 0 0.0 1.7 0.02 0.35 0.29 95 1010.0
20260507115055 64 193 0.0 1.7 0.02 0.35 0.29 95 1010.0
20260507114559 64 0 0.0 1.7 0.02 0.35 0.29 95 1010.1
20260507114056 64 0 0.0 1.7 0.01 0.34 0.28 95 1010.0
20260507113557 64 0 0.0 1.7 0.01 0.34 0.28 95 1009.8
20260507113055 64 107 0.9 1.7 0.01 0.34 0.28 95 1009.9
20260507112557 64 171 0.0 1.7 0.01 0.34 0.28 95 1010.2
20260507112056 64 257 0.0 1.7 0.01 0.34 0.28 95 1010.4
20260507111602 64 0 0.0 1.7 0.01 0.34 0.28 95 1010.3
20260507111058 64 0 0.0 1.7 0.02 0.34 0.28 95 1010.4
20260507110556 64 279 0.0 1.7 0.01 0.33 0.27 94 1010.4
20260507110056 64 0 0.0 1.7 0.01 0.33 0.27 94 1010.1
20260507105556 64 250 0.0 1.7 0.01 0.33 0.27 94 1010.1
20260507105056 64 250 0.0 1.7 0.01 0.33 0.27 94 1010.0
20260507104555 64 300 0.0 0.9 0.01 0.33 0.27 94 1010.2
20260507104056 64 328 0.9 0.9 0.02 0.33 0.27 94 1010.2
20260507103556 64 222 0.0 1.7 0.03 0.33 0.27 94 1010.1
20260507103054 64 219 0.0 1.7 0.03 0.33 0.27 94 1010.0
20260507102553 64 0 0.0 1.7 0.03 0.33 0.27 94 1009.9
20260507102056 64 175 0.0 1.7 0.03 0.33 0.27 94 1009.7
20260507101625 64 149 0.0 1.7 0.03 0.33 0.27 94 1009.8
20260507101058 64 307 0.9 1.7 0.02 0.32 0.26 94 1010.1
20260507100556 64 286 0.0 1.7 0.02 0.32 0.26 94 1010.2
20260507100055 64 0 0.0 1.7 0.02 0.32 0.26 94 1010.0
20260507095557 64 275 0.0 1.7 0.02 0.32 0.26 94 1009.8
20260507095056 64 140 0.9 1.7 0.02 0.32 0.26 94 1009.7
20260507094558 64 202 0.0 1.7 0.02 0.32 0.26 94 1010.0
20260507094056 64 240 0.0 1.7 0.01 0.31 0.25 94 1010.1
20260507093556 64 265 0.0 1.7 0.00 0.30 0.24 94 1010.1
20260507093100 64 0 0.0 1.7 0.01 0.30 0.24 94 1009.9
20260507092556 64 0 0.9 1.7 0.01 0.30 0.24 94 1009.9
20260507092100 64 244 0.0 0.9 0.02 0.30 0.24 94 1009.9
20260507091557 64 0 0.0 0.9 0.03 0.30 0.24 94 1010.0
20260507091056 64 0 0.0 1.7 0.03 0.30 0.24 94 1009.7
20260507090555 64 300 0.0 1.7 0.03 0.30 0.24 94 1009.8
20260507090111 64 266 0.0 1.7 0.03 0.30 0.24 94 1009.8
20260507085556 64 113 0.0 1.7 0.03 0.30 0.24 94 1009.6
20260507085058 64 96 0.0 2.6 0.03 0.30 0.24 94 1009.7
20260507084601 64 90 0.0 2.6 0.03 0.30 0.24 94 1009.9
20260507084055 64 0 0.9 2.6 0.04 0.30 0.24 94 1010.0
20260507083556 64 299 0.0 2.6 0.05 0.30 0.24 94 1010.2
20260507083056 64 185 0.0 2.6 0.04 0.29 0.23 94 1010.2
20260507082600 63 262 0.0 1.7 0.03 0.28 0.22 94 1010.4
20260507082056 63 0 0.0 1.7 0.03 0.28 0.22 94 1010.4
20260507081556 63 0 0.0 1.7 0.03 0.27 0.21 94 1010.5
20260507081056 63 0 0.0 1.7 0.03 0.27 0.21 94 1010.4
20260507080556 63 0 0.0 1.7 0.03 0.27 0.21 94 1010.2
20260507080055 63 244 0.0 1.7 0.03 0.27 0.21 94 1010.2
20260507075557 64 0 0.0 1.7 0.03 0.27 0.21 94 1010.1
20260507075056 64 244 0.0 1.7 0.03 0.27 0.21 94 1010.1
20260507074557 64 294 0.9 1.7 0.03 0.27 0.21 94 1010.4
20260507074055 64 10 0.0 2.6 0.02 0.26 0.20 94 1010.4
20260507073555 64 0 0.0 2.6 0.01 0.25 0.19 94 1010.5
20260507073055 64 218 0.9 2.6 0.01 0.25 0.19 94 1010.5
20260507072556 64 263 0.9 2.6 0.01 0.25 0.19 94 1010.5
20260507072056 64 243 0.0 1.7 0.03 0.25 0.19 94 1010.4
20260507071556 64 0 0.0 1.7 0.03 0.24 0.18 94 1010.2
20260507071055 64 212 0.0 1.7 0.03 0.24 0.18 94 1010.3
20260507070556 64 0 0.9 1.7 0.04 0.24 0.18 94 1010.5
20260507070056 64 239 0.0 1.7 0.06 0.24 0.18 94 1010.6
20260507065556 64 150 0.9 2.6 0.08 0.24 0.18 93 1010.5
20260507065056 64 158 0.0 2.6 0.10 0.24 0.18 93 1010.8
20260507064613 64 246 0.9 1.7 0.11 0.24 0.18 94 1011.0
20260507064056 64 250 0.0 1.7 0.13 0.24 0.18 93 1010.8
20260507063556 64 202 0.0 3.5 0.14 0.24 0.18 93 1011.2
20260507063058 64 229 0.9 3.5 0.14 0.24 0.18 93 1011.8
20260507062555 64 234 0.9 3.5 0.14 0.24 0.18 94 1011.9
20260507062056 64 247 1.7 6.1 0.12 0.22 0.16 94 1011.9
20260507061600 64 333 0.9 6.1 0.11 0.21 0.15 94 1012.0
20260507061055 64 288 1.7 6.1 0.11 0.21 0.15 94 1012.0
20260507060556 64 311 1.7 6.1 0.10 0.20 0.14 94 1011.9
20260507060058 64 255 0.0 1.7 0.08 0.18 0.12 94 1011.5
20260507055556 64 275 0.0 1.7 0.06 0.16 0.10 93 1011.5
20260507055057 64 310 0.0 1.7 0.04 0.14 0.08 93 1011.8
20260507054608 64 297 0.9 1.7 0.03 0.13 0.07 93 1011.9
20260507054056 64 201 0.0 1.7 0.01 0.11 0.05 93 1011.8
20260507053556 64 254 0.0 1.7 0.00 0.10 0.04 93 1011.9
20260507053059 64 0 0.0 1.7 0.01 0.10 0.04 93 1011.8
20260507052556 64 306 0.0 1.7 0.01 0.10 0.04 93 1011.9
20260507052056 64 0 0.9 1.7 0.01 0.10 0.04 93 1011.7
20260507051600 64 192 0.0 2.6 0.01 0.10 0.04 93 1011.9
20260507051055 64 0 0.9 2.6 0.01 0.10 0.04 93 1011.6
20260507050555 64 0 0.0 2.6 0.02 0.10 0.04 93 1012.2
20260507045559 65 263 0.0 1.7 0.05 0.10 0.04 92 1012.2
20260507045055 65 269 0.9 1.7 0.06 0.10 0.04 92 1012.0